Lid_Strength_Index
7 7 9 11 11 11 12 12 12 13 13 14 14 15 15 15 15 15 15 15 15 15 15 15 14 13 13 13 13 13 13 14 15 13 12 12 13 13 14 14 14 14 15
10 11 12 12 12 12 13 13 13 14 14 14 14 15 15 15 15 15 15 16 15 15 15 14 14 14 14 14 14 14 14 13 14 15 13 13 14 14 14 15 15 15 15
13 13 13 13 13 13 13 14 13 14 14 14 14 14 15 15 15 15 15 15 14 14 14 14 14 14 14 14 14 14 14 14 14 15 15 14 14 14 15 15 15 15 15
13 13 13 13 13 13 13 14 14 14 14 14 14 15 15 15 15 15 15 15 14 14 13 13 13 13 13 13 14 14 14 14 14 15 15 15 15 15 16 17 17 15 16
13 14 14 14 14 14 14 15 15 15 14 15 15 15 15 15 15 15 15 14 14 13 13 13 13 13 12 12 14 13 14 14 14 15 16 16 16 16 17 16 18 17 16
14 14 14 15 15 15 15 16 16 16 16 16 16 15 15 15 14 13 13 14 14 14 14 13 13 13 13 12 12 12 13 14 15 15 15 16 16 16 16 17 18 18 20
14 15 15 16 16 17 17 17 17 16 16 17 16 16 15 14 13 13 12 13 13 13 13 13 13 13 13 13 12 12 12 12 12 14 15 15 15 15 16 18 18 18 19
15 15 16 16 17 17 17 17 17 17 17 16 16 15 15 15 14 13 13 13 12 12 12 12 13 13 12 13 14 14 14 13 12 12 12 13 13 14 16 17 18 19 20
15 15 15 16 16 17 17 17 16 16 16 15 16 16 15 15 14 13 13 13 13 12 12 11 12 12 12 12 14 14 14 14 12 11 11 11 13 14 15 17 19 20 22
15 16 16 15 15 15 15 15 15 15 16 16 16 15 15 15 14 13 12 13 13 13 12 12 12 12 12 12 13 13 14 13 13 14 13 12 12 14 15 18 19 22 22
16 16 16 15 15 15 15 15 15 15 16 15 16 15 15 14 14 12 12 13 13 13 13 13 12 12 12 11 11 12 12 11 12 13 15 14 16 18 19 19 20 21 22
18 18 18 18 17 17 17 16 17 16 16 16 15 14 13 14 14 13 12 12 12 13 13 12 12 12 12 11 11 10 10 11 11 13 15 16 18 19 19 20 20 20 20
19 19 19 18 18 18 17 17 16 16 15 15 15 15 14 13 13 13 14 14 13 13 13 13 12 12 11 11 10 10 11 11 12 14 15 17 17 18 19 20 21 21 21
20 20 20 20 19 19 17 17 16 16 16 15 15 15 15 14 14 13 13 12 13 13 13 13 12 12 12 12 12 11 11 11 12 15 15 16 18 21 21 21 21 21 22
21 20 20 19 19 19 18 17 17 15 15 15 15 14 15 15 14 13 13 13 12 12 12 11 12 13 14 13 13 12 12 12 14 15 15 18 20 21 21 21 21 22 23
21 21 21 20 20 19 19 18 17 17 16 15 15 16 16 15 15 15 14 13 13 13 14 14 14 13 13 13 13 13 13 14 15 15 17 19 20 21 21 21 21 22 22
22 22 21 21 21 21 21 21 22 19 18 17 17 18 17 17 16 15 15 14 14 14 16 16 16 16 15 14 13 13 13 14 15 16 18 19 20 21 21 21 22 22 22
23 24 23 23 23 23 23 23 22 23 23 22 20 19 19 18 17 16 17 17 19 18 19 19 19 18 18 17 16 15 13 14 17 18 19 19 20 20 21 21 21 22 22
24 25 25 24 24 24 23 24 24 24 24 23 22 21 21 19 18 19 19 22 22 22 21 21 20 20 19 18 17 16 15 14 17 18 18 19 19 20 21 21 21 22 22
25 26 26 25 25 25 25 25 25 25 24 24 24 24 24 22 24 24 23 23 23 23 22 22 21 21 20 20 20 19 17 16 17 18 18 19 20 20 21 21 21 22 22
25 26 27 26 26 26 26 26 26 26 26 26 26 25 22 25 26 25 25 24 24 23 23 22 22 22 21 20 20 19 17 16 17 18 19 20 20 20 20 20 21 21 22
27 27 26 27 26 26 27 26 26 27 27 27 26 25 23 25 25 25 25 24 24 23 23 23 23 22 22 22 20 19 18 17 17 18 19 20 20 20 20 21 21 22 23
27 27 27 27 27 27 27 27 27 27 27 27 26 26 26 25 25 25 25 25 24 24 23 23 23 23 21 20 19 18 17 16 17 17 19 19 20 20 20 21 22 23 23
27 27 28 28 28 28 28 28 27 27 27 27 26 26 27 27 27 26 26 25 24 24 22 22 21 21 20 19 17 16 15 15 16 17 18 18 19 20 20 22 22 22 23
28 28 28 29 29 28 28 28 27 27 27 27 27 27 27 27 26 26 25 24 23 23 22 21 18 18 18 17 17 16 15 15 16 17 17 18 19 20 21 21 22 23 23
29 29 29 28 28 28 28 29 28 28 28 27 27 27 26 26 25 24 24 23 22 21 20 18 17 17 16 16 15 16 15 15 17 17 17 19 20 21 21 23 23 22 23